Catherine Desgagnes — VOWN — position and weather

sailwx.info

Track history (hours):
 
Tides and Currents Weather Stations Pressure Air Temp Water Temp Dewpoint Dewpoint Depression Visibility Wind Speed Wind Dir Waves Ship Positions

Catherine Desgagnes

Last reported at 2014-Oct-19 19:15 UTC. Time now 2014-Oct-22 01:47 UTC.
Position N 46°34' W 072°07'.

Length 125 m; draft 5.2 m.

Type: Ship. MMSI: 316001203.

Date/timePositionNaut miles runAvg speedWind from/ knotsBaromVisibWave heightAir tempDewpointWater temp
2014-Oct-19 19:15N 46°34' W 072°07'1014.0
2014-Oct-19 18:34N 46°27' W 072°16'1413.8
2014-Oct-19 17:34N 46°19' W 072°33'1211.9
2014-Oct-19 16:33N 46°13' W 072°48'2612.8
2014-Oct-19 14:33N 45°54' W 073°13'1414.1
2014-Oct-19 13:33N 45°43' W 073°26'1313.0
2014-Oct-19 12:33N 45°31' W 073°31'3 2.8
2014-Oct-19 11:33N 45°28' W 073°30'5 4.6
2014-Oct-19 10:33N 45°24' W 073°34'2 1.9
2014-Oct-19 09:33N 45°24' W 073°37'9 8.5
2014-Oct-19 08:33N 45°23' W 073°49'6 6.0
2014-Oct-19 07:33N 45°19' W 073°55'2 1.8
2014-Oct-19 06:33N 45°17' W 073°56'9 9.1
2014-Oct-19 05:33N 45°14' W 074°08'1211.7
2014-Oct-19 04:33N 45°09' W 074°23'92 8.1
2014-Oct-18 17:09N 44°14' W 076°07'712.0
2014-Oct-18 16:33N 44°12' W 076°17'1110.7
2014-Oct-18 15:33N 44°03' W 076°26'  
2014-Oct-16 00:14N 42°29' W 080°07'180 6.7
2014-Oct-14 21:14N 43°59' W 076°33'812.2
2014-Oct-14 20:33N 44°05' W 076°25'9 8.4
2014-Oct-14 19:33N 44°12' W 076°18'6 4.8
2014-Oct-14 18:13N 44°14' W 076°10'88 5.1
2014-Oct-14 01:09N 45°05' W 074°30'610.4
2014-Oct-14 00:34N 45°09' W 074°23'1111.2
2014-Oct-13 23:33N 45°14' W 074°09'9 8.9
2014-Oct-13 22:33N 45°17' W 073°57'2 2.5
2014-Oct-13 21:34N 45°19' W 073°55'2 1.8
2014-Oct-13 20:33N 45°20' W 073°53'9 9.3
2014-Oct-13 19:33N 45°25' W 073°42'6 5.5
2014-Oct-13 18:33N 45°24' W 073°34'3 3.1
2014-Oct-13 17:33N 45°26' W 073°30'4 3.9
2014-Oct-13 16:32N 45°30' W 073°31'0 0.0
2014-Oct-13 15:32N 45°30' W 073°31'3 3.0
2014-Oct-13 14:30N 45°33' W 073°31'1 0.5
2014-Oct-13 13:32N 45°34' W 073°31'0 0.0
2014-Oct-13 12:32N 45°34' W 073°31'0 0.0
2014-Oct-13 11:32N 45°34' W 073°31'0 0.0
2014-Oct-13 10:32N 45°34' W 073°31'0 0.0
2014-Oct-13 09:32N 45°34' W 073°31'0 0.0
2014-Oct-13 08:32N 45°34' W 073°31'0 0.0
2014-Oct-13 07:32N 45°34' W 073°31'0 0.0
2014-Oct-13 06:32N 45°34' W 073°31'0 0.0
2014-Oct-13 05:32N 45°34' W 073°31'0 0.0
2014-Oct-13 04:32N 45°34' W 073°31'0 0.0
2014-Oct-13 03:32N 45°34' W 073°31'0 0.0
2014-Oct-13 02:32N 45°34' W 073°31'0 0.0
2014-Oct-13 01:32N 45°34' W 073°31'0 0.0
2014-Oct-13 00:32N 45°34' W 073°31'0 0.0
2014-Oct-12 23:32N 45°34' W 073°31'0 0.0
2014-Oct-12 22:32N 45°34' W 073°31'0 0.0
2014-Oct-12 21:32N 45°34' W 073°31'0 0.0
2014-Oct-12 20:32N 45°34' W 073°31'0 0.0
2014-Oct-12 19:32N 45°34' W 073°31'0 0.0
2014-Oct-12 18:29N 45°34' W 073°31'0 0.0
2014-Oct-12 17:32N 45°34' W 073°31'0 0.0
2014-Oct-12 16:32N 45°34' W 073°31'0 0.0
2014-Oct-12 15:32N 45°34' W 073°31'0 0.0
2014-Oct-12 14:32N 45°34' W 073°31'0 0.0
2014-Oct-12 13:32N 45°34' W 073°31'0 0.0
2014-Oct-12 12:32N 45°34' W 073°31'0 0.0
2014-Oct-12 11:32N 45°34' W 073°31'0 0.0
2014-Oct-12 10:32N 45°34' W 073°31'0 0.0
2014-Oct-12 09:32N 45°34' W 073°31'0 0.0
2014-Oct-12 08:32N 45°34' W 073°31'0 0.0
2014-Oct-12 07:32N 45°34' W 073°31'0 0.0
2014-Oct-12 06:32N 45°34' W 073°31'0 0.0
2014-Oct-12 05:32N 45°34' W 073°31'0 0.0
2014-Oct-12 04:32N 45°34' W 073°31'0 0.0
2014-Oct-12 03:32N 45°34' W 073°31'0 0.0
2014-Oct-12 02:32N 45°34' W 073°31'0 0.0
2014-Oct-12 01:32N 45°34' W 073°31'0 0.0
2014-Oct-12 00:32N 45°34' W 073°31'0 0.0
2014-Oct-11 23:32N 45°34' W 073°31'0 0.0
2014-Oct-11 22:32N 45°34' W 073°31'0 0.0
2014-Oct-11 21:32N 45°34' W 073°31'0 0.0
2014-Oct-11 20:32N 45°34' W 073°31'0 0.0
2014-Oct-11 19:31N 45°34' W 073°31'0 0.0
2014-Oct-11 18:31N 45°34' W 073°31'0 0.0
2014-Oct-11 17:31N 45°34' W 073°31'0 0.0
2014-Oct-11 16:31N 45°34' W 073°31'0 0.0
2014-Oct-11 15:31N 45°34' W 073°31'0 0.0
2014-Oct-11 14:31N 45°34' W 073°31'0 0.0
2014-Oct-11 13:31N 45°34' W 073°31'0 0.0
2014-Oct-11 12:31N 45°34' W 073°31'0 0.0
2014-Oct-11 11:31N 45°34' W 073°31'0 0.0
2014-Oct-11 10:31N 45°34' W 073°31'0 0.0
2014-Oct-11 09:31N 45°34' W 073°31'0 0.0
2014-Oct-11 08:31N 45°34' W 073°31'0 0.0
2014-Oct-11 07:31N 45°34' W 073°31'0 0.0
2014-Oct-11 06:31N 45°34' W 073°31'0 0.0
2014-Oct-11 05:31N 45°34' W 073°31'0 0.0
2014-Oct-11 04:31N 45°34' W 073°31'0 0.0
2014-Oct-11 03:31N 45°34' W 073°31'0 0.0
2014-Oct-10 21:31N 45°34' W 073°31'0 0.0
2014-Oct-10 20:31N 45°34' W 073°31'0 0.0
2014-Oct-10 19:28N 45°34' W 073°31'0 0.0
2014-Oct-10 18:31N 45°34' W 073°31'0 0.0
2014-Oct-10 17:31N 45°34' W 073°31'0 0.0
2014-Oct-10 16:31N 45°34' W 073°31'0 0.0
2014-Oct-10 15:31N 45°34' W 073°31'0 0.0
2014-Oct-10 14:31N 45°34' W 073°31'0 0.0
2014-Oct-10 13:31N 45°34' W 073°31'0 0.0
2014-Oct-10 12:16N 45°34' W 073°31'0 0.0
2014-Oct-10 11:31N 45°34' W 073°31'0 0.0
2014-Oct-10 10:31N 45°34' W 073°31'0 0.0
2014-Oct-10 09:31N 45°34' W 073°31'0 0.0
2014-Oct-10 08:31N 45°34' W 073°31'0 0.0
2014-Oct-10 07:31N 45°34' W 073°31'0 0.0
2014-Oct-10 06:31N 45°34' W 073°31'0 0.0
2014-Oct-10 05:31N 45°34' W 073°31'0 0.0
2014-Oct-10 04:31N 45°34' W 073°31'0 0.0
2014-Oct-10 03:31N 45°34' W 073°31'0 0.0
2014-Oct-10 02:31N 45°34' W 073°31'0 0.0
2014-Oct-10 01:31N 45°34' W 073°31'0 0.0
2014-Oct-09 22:10N 45°34' W 073°31'0 0.0
2014-Oct-09 21:31N 45°34' W 073°31'0 0.0
2014-Oct-09 20:31N 45°34' W 073°31'0 0.0
2014-Oct-09 19:31N 45°34' W 073°31'  
Track history (hours):
 
Tides and Currents Weather Stations Pressure Air Temp Water Temp Dewpoint Dewpoint Depression Visibility Wind Speed Wind Dir Waves Ship Positions

Catherine Desgagnes

Last reported at 2014-Oct-19 19:15 UTC. Time now 2014-Oct-22 01:47 UTC.
Position N 46°34' W 072°07'.

Length 125 m; draft 5.2 m.

Type: Ship. MMSI: 316001203.

Date/timePositionNaut miles runAvg speedWind from/ knotsBaromVisibWave heightAir tempDewpointWater temp
2014-Oct-19 19:15N 46°34' W 072°07'1014.0
2014-Oct-19 18:34N 46°27' W 072°16'1413.8
2014-Oct-19 17:34N 46°19' W 072°33'1211.9
2014-Oct-19 16:33N 46°13' W 072°48'2612.8
2014-Oct-19 14:33N 45°54' W 073°13'1414.1
2014-Oct-19 13:33N 45°43' W 073°26'1313.0
2014-Oct-19 12:33N 45°31' W 073°31'3 2.8
2014-Oct-19 11:33N 45°28' W 073°30'5 4.6
2014-Oct-19 10:33N 45°24' W 073°34'2 1.9
2014-Oct-19 09:33N 45°24' W 073°37'9 8.5
2014-Oct-19 08:33N 45°23' W 073°49'6 6.0
2014-Oct-19 07:33N 45°19' W 073°55'2 1.8
2014-Oct-19 06:33N 45°17' W 073°56'9 9.1
2014-Oct-19 05:33N 45°14' W 074°08'1211.7
2014-Oct-19 04:33N 45°09' W 074°23'92 8.1
2014-Oct-18 17:09N 44°14' W 076°07'712.0
2014-Oct-18 16:33N 44°12' W 076°17'1110.7
2014-Oct-18 15:33N 44°03' W 076°26'  
2014-Oct-16 00:14N 42°29' W 080°07'180 6.7
2014-Oct-14 21:14N 43°59' W 076°33'812.2
2014-Oct-14 20:33N 44°05' W 076°25'9 8.4
2014-Oct-14 19:33N 44°12' W 076°18'6 4.8
2014-Oct-14 18:13N 44°14' W 076°10'88 5.1
2014-Oct-14 01:09N 45°05' W 074°30'610.4
2014-Oct-14 00:34N 45°09' W 074°23'1111.2
2014-Oct-13 23:33N 45°14' W 074°09'9 8.9
2014-Oct-13 22:33N 45°17' W 073°57'2 2.5
2014-Oct-13 21:34N 45°19' W 073°55'2 1.8
2014-Oct-13 20:33N 45°20' W 073°53'9 9.3
2014-Oct-13 19:33N 45°25' W 073°42'6 5.5
2014-Oct-13 18:33N 45°24' W 073°34'3 3.1
2014-Oct-13 17:33N 45°26' W 073°30'4 3.9
2014-Oct-13 16:32N 45°30' W 073°31'0 0.0
2014-Oct-13 15:32N 45°30' W 073°31'3 3.0
2014-Oct-13 14:30N 45°33' W 073°31'1 0.5
2014-Oct-13 13:32N 45°34' W 073°31'0 0.0
2014-Oct-13 12:32N 45°34' W 073°31'0 0.0
2014-Oct-13 11:32N 45°34' W 073°31'0 0.0
2014-Oct-13 10:32N 45°34' W 073°31'0 0.0
2014-Oct-13 09:32N 45°34' W 073°31'0 0.0
2014-Oct-13 08:32N 45°34' W 073°31'0 0.0
2014-Oct-13 07:32N 45°34' W 073°31'0 0.0
2014-Oct-13 06:32N 45°34' W 073°31'0 0.0
2014-Oct-13 05:32N 45°34' W 073°31'0 0.0
2014-Oct-13 04:32N 45°34' W 073°31'0 0.0
2014-Oct-13 03:32N 45°34' W 073°31'0 0.0
2014-Oct-13 02:32N 45°34' W 073°31'0 0.0
2014-Oct-13 01:32N 45°34' W 073°31'0 0.0
2014-Oct-13 00:32N 45°34' W 073°31'0 0.0
2014-Oct-12 23:32N 45°34' W 073°31'0 0.0
2014-Oct-12 22:32N 45°34' W 073°31'0 0.0
2014-Oct-12 21:32N 45°34' W 073°31'0 0.0
2014-Oct-12 20:32N 45°34' W 073°31'0 0.0
2014-Oct-12 19:32N 45°34' W 073°31'0 0.0
2014-Oct-12 18:29N 45°34' W 073°31'0 0.0
2014-Oct-12 17:32N 45°34' W 073°31'0 0.0
2014-Oct-12 16:32N 45°34' W 073°31'0 0.0
2014-Oct-12 15:32N 45°34' W 073°31'0 0.0
2014-Oct-12 14:32N 45°34' W 073°31'0 0.0
2014-Oct-12 13:32N 45°34' W 073°31'0 0.0
2014-Oct-12 12:32N 45°34' W 073°31'0 0.0
2014-Oct-12 11:32N 45°34' W 073°31'0 0.0
2014-Oct-12 10:32N 45°34' W 073°31'0 0.0
2014-Oct-12 09:32N 45°34' W 073°31'0 0.0
2014-Oct-12 08:32N 45°34' W 073°31'0 0.0
2014-Oct-12 07:32N 45°34' W 073°31'0 0.0
2014-Oct-12 06:32N 45°34' W 073°31'0 0.0
2014-Oct-12 05:32N 45°34' W 073°31'0 0.0
2014-Oct-12 04:32N 45°34' W 073°31'0 0.0
2014-Oct-12 03:32N 45°34' W 073°31'0 0.0
2014-Oct-12 02:32N 45°34' W 073°31'0 0.0
2014-Oct-12 01:32N 45°34' W 073°31'0 0.0
2014-Oct-12 00:32N 45°34' W 073°31'0 0.0
2014-Oct-11 23:32N 45°34' W 073°31'0 0.0
2014-Oct-11 22:32N 45°34' W 073°31'0 0.0
2014-Oct-11 21:32N 45°34' W 073°31'0 0.0
2014-Oct-11 20:32N 45°34' W 073°31'0 0.0
2014-Oct-11 19:31N 45°34' W 073°31'0 0.0
2014-Oct-11 18:31N 45°34' W 073°31'0 0.0
2014-Oct-11 17:31N 45°34' W 073°31'0 0.0
2014-Oct-11 16:31N 45°34' W 073°31'0 0.0
2014-Oct-11 15:31N 45°34' W 073°31'0 0.0
2014-Oct-11 14:31N 45°34' W 073°31'0 0.0
2014-Oct-11 13:31N 45°34' W 073°31'0 0.0
2014-Oct-11 12:31N 45°34' W 073°31'0 0.0
2014-Oct-11 11:31N 45°34' W 073°31'0 0.0
2014-Oct-11 10:31N 45°34' W 073°31'0 0.0
2014-Oct-11 09:31N 45°34' W 073°31'0 0.0
2014-Oct-11 08:31N 45°34' W 073°31'0 0.0
2014-Oct-11 07:31N 45°34' W 073°31'0 0.0
2014-Oct-11 06:31N 45°34' W 073°31'0 0.0
2014-Oct-11 05:31N 45°34' W 073°31'0 0.0
2014-Oct-11 04:31N 45°34' W 073°31'0 0.0
2014-Oct-11 03:31N 45°34' W 073°31'0 0.0
2014-Oct-10 21:31N 45°34' W 073°31'0 0.0
2014-Oct-10 20:31N 45°34' W 073°31'0 0.0
2014-Oct-10 19:28N 45°34' W 073°31'0 0.0
2014-Oct-10 18:31N 45°34' W 073°31'0 0.0
2014-Oct-10 17:31N 45°34' W 073°31'0 0.0
2014-Oct-10 16:31N 45°34' W 073°31'0 0.0
2014-Oct-10 15:31N 45°34' W 073°31'0 0.0
2014-Oct-10 14:31N 45°34' W 073°31'0 0.0
2014-Oct-10 13:31N 45°34' W 073°31'0 0.0
2014-Oct-10 12:16N 45°34' W 073°31'0 0.0
2014-Oct-10 11:31N 45°34' W 073°31'0 0.0
2014-Oct-10 10:31N 45°34' W 073°31'0 0.0
2014-Oct-10 09:31N 45°34' W 073°31'0 0.0
2014-Oct-10 08:31N 45°34' W 073°31'0 0.0
2014-Oct-10 07:31N 45°34' W 073°31'0 0.0
2014-Oct-10 06:31N 45°34' W 073°31'0 0.0
2014-Oct-10 05:31N 45°34' W 073°31'0 0.0
2014-Oct-10 04:31N 45°34' W 073°31'0 0.0
2014-Oct-10 03:31N 45°34' W 073°31'0 0.0
2014-Oct-10 02:31N 45°34' W 073°31'0 0.0
2014-Oct-10 01:31N 45°34' W 073°31'0 0.0
2014-Oct-09 22:10N 45°34' W 073°31'0 0.0
2014-Oct-09 21:31N 45°34' W 073°31'0 0.0
2014-Oct-09 20:31N 45°34' W 073°31'0 0.0
2014-Oct-09 19:31N 45°34' W 073°31'  

Dump ship's entire track history